| time (UTC) | temp F | wind direction | speed MPH | gust MPH | rain 1hr in | rain 24hr in | rain mn in | humidity % | barometer mb |
| 20260504080833 | 57 | 225 | 1.0 | 2.0 | 0.00 | 0.97 | 0.11 | 84 | 1015.1 |
| 20260504045333 | 59 | 315 | 1.0 | 2.0 | 0.04 | 0.94 | 0.08 | 88 | 1013.7 |
| 20260504043833 | 59 | 280 | 1.0 | 3.0 | 0.04 | 0.93 | 0.07 | 88 | 1013.7 |
| 20260504042333 | 59 | 315 | 2.0 | 3.0 | 0.04 | 0.93 | 0.07 | 88 | 1013.8 |
| 20260504040834 | 60 | 270 | 0.0 | 1.0 | 0.04 | 0.93 | 0.07 | 88 | 1013.9 |
| 20260504035333 | 60 | 315 | 1.0 | 3.0 | 0.02 | 0.91 | 0.05 | 87 | 1013.9 |
| 20260504033832 | 60 | 300 | 2.0 | 5.0 | 0.01 | 0.90 | 0.04 | 86 | 1013.9 |
| 20260504032334 | 60 | 270 | 0.0 | 2.0 | 0.02 | 0.90 | 0.04 | 85 | 1014.2 |
| 20260504030833 | 61 | 289 | 2.0 | 3.0 | 0.04 | 0.90 | 0.04 | 85 | 1014.0 |
| 20260504025332 | 61 | 270 | 2.0 | 3.0 | 0.02 | 0.89 | 0.02 | 85 | 1014.2 |
| 20260504023832 | 61 | 289 | 2.0 | 3.0 | 0.02 | 0.89 | 0.02 | 83 | 1014.6 |
| 20260504022333 | 62 | 270 | 0.0 | 1.0 | 0.01 | 0.87 | 0.01 | 82 | 1014.7 |
| 20260504020833 | 64 | 305 | 3.0 | 6.0 | 0.00 | 0.86 | 0.00 | 76 | 1014.8 |
| 20260504015332 | 65 | 55 | 3.0 | 5.0 | 0.00 | 0.86 | 0.00 | 75 | 1015.0 |
| 20260504013832 | 65 | 90 | 5.0 | 8.0 | 0.00 | 0.86 | 0.00 | 73 | 1015.1 |
| 20260504012333 | 66 | 106 | 3.0 | 8.0 | 0.00 | 0.86 | 0.00 | 73 | 1015.1 |
| 20260504010833 | 66 | 88 | 2.0 | 9.0 | 0.00 | 0.86 | 0.00 | 72 | 1015.3 |
| 20260504005332 | 67 | 73 | 6.0 | 9.0 | 0.00 | 0.86 | 0.00 | 72 | 1015.2 |
| 20260504003833 | 67 | 76 | 5.0 | 10.0 | 0.00 | 0.86 | 0.00 | 72 | 1015.4 |
| 20260504002332 | 68 | 90 | 7.0 | 10.0 | 0.00 | 0.86 | 0.00 | 71 | 1015.2 |
| 20260504000834 | 69 | 45 | 7.0 | 10.0 | 0.00 | 0.86 | 0.00 | 72 | 1015.1 |
| 20260503235334 | 67 | 83 | 8.0 | 15.0 | 0.00 | 0.86 | 0.00 | 72 | 1015.1 |
| 20260503233833 | 66 | 133 | 9.0 | 16.0 | 0.00 | 0.86 | 0.00 | 76 | 1015.1 |
| 20260503232333 | 66 | 112 | 8.0 | 12.0 | 0.00 | 0.86 | 0.00 | 78 | 1015.2 |
| 20260503230832 | 65 | 57 | 6.0 | 9.0 | 0.00 | 0.86 | 0.00 | 82 | 1015.1 |
| 20260503225333 | 63 | 312 | 3.0 | 8.0 | 0.04 | 0.86 | 0.86 | 90 | 1015.3 |
| 20260503223833 | 62 | 78 | 7.0 | 8.0 | 0.04 | 0.86 | 0.86 | 90 | 1015.1 |
| 20260503222332 | 62 | 147 | 9.0 | 13.0 | 0.06 | 0.86 | 0.86 | 91 | 1014.6 |
| 20260503220833 | 62 | 149 | 5.0 | 13.0 | 0.11 | 0.84 | 0.84 | 93 | 1014.8 |
| 20260503215333 | 62 | 135 | 6.0 | 9.0 | 0.15 | 0.83 | 0.83 | 94 | 1015.0 |
| 20260503213833 | 62 | 155 | 6.0 | 8.0 | 0.20 | 0.83 | 0.83 | 95 | 1014.8 |
| 20260503212332 | 62 | 118 | 7.0 | 8.0 | 0.21 | 0.80 | 0.80 | 95 | 1014.8 |
| 20260503210833 | 62 | 100 | 6.0 | 7.0 | 0.18 | 0.73 | 0.73 | 94 | 1015.1 |
| 20260503205333 | 62 | 76 | 2.0 | 3.0 | 0.15 | 0.67 | 0.67 | 94 | 1014.9 |
| 20260503203833 | 62 | 74 | 5.0 | 6.0 | 0.13 | 0.63 | 0.63 | 94 | 1014.7 |
| 20260503202332 | 62 | 100 | 2.0 | 6.0 | 0.09 | 0.59 | 0.59 | 94 | 1014.5 |
| 20260503200834 | 62 | 129 | 2.0 | 3.0 | 0.07 | 0.56 | 0.56 | 94 | 1014.5 |
| 20260503195334 | 62 | 121 | 6.0 | 8.0 | 0.06 | 0.52 | 0.52 | 94 | 1014.3 |
| 20260503193834 | 62 | 105 | 5.0 | 8.0 | 0.06 | 0.50 | 0.50 | 94 | 1014.5 |
| 20260503192333 | 62 | 117 | 5.0 | 8.0 | 0.07 | 0.50 | 0.50 | 94 | 1014.5 |
| 20260503190832 | 62 | 92 | 2.0 | 5.0 | 0.07 | 0.48 | 0.48 | 93 | 1014.4 |
| 20260503185333 | 62 | 88 | 2.0 | 6.0 | 0.06 | 0.46 | 0.46 | 93 | 1014.5 |
| 20260503183833 | 62 | 129 | 3.0 | 6.0 | 0.04 | 0.44 | 0.44 | 94 | 1014.5 |
| 20260503182332 | 62 | 82 | 2.0 | 5.0 | 0.02 | 0.43 | 0.43 | 94 | 1014.4 |
| 20260503180833 | 62 | 105 | 2.0 | 5.0 | 0.01 | 0.41 | 0.41 | 95 | 1014.1 |
| 20260503175334 | 62 | 88 | 5.0 | 6.0 | 0.00 | 0.40 | 0.40 | 95 | 1014.1 |
| 20260503173832 | 62 | 121 | 2.0 | 5.0 | 0.02 | 0.40 | 0.40 | 94 | 1014.3 |
| 20260503172333 | 62 | 82 | 2.0 | 5.0 | 0.04 | 0.40 | 0.40 | 94 | 1014.4 |
| 20260503170834 | 62 | 107 | 2.0 | 8.0 | 0.06 | 0.40 | 0.40 | 94 | 1014.7 |
| 20260503150811 | 63 | 90 | 1.0 | 1.0 | 0.17 | 0.25 | 0.25 | 92 | 1016.3 |
| 20260503130811 | 64 | 270 | 0.0 | 1.0 | 0.04 | 0.05 | 0.05 | 84 | 1017.5 |